Location: Dealu Frumos
(46.4500°N, 22.8167°E)
Time: 12:12:50
(UTC+00:00)

Daily predictions for brighter satellites

Satellite Brightness Start Highest point End
(mag) Time Altitude Azimuth Time Altitude Azimuth Time Altitude Azimuth
Cosmos 2061 Rocket 4.1 17:03:11 10° S 17:09:34 77° E 17:16:02 10° NNE
SAR-Lupe-2 3.8 17:06:36 10° SSE 17:10:03 48° ENE 17:13:31 10° N
Landsat 7 4.0 17:05:59 10° S 17:10:41 79° WSW 17:15:25 10° NNW
COSMOS 2428 2.9 17:07:07 10° S 17:12:37 53° ESE 17:18:11 10° NE
Meteor PRIRODA 3.9 17:12:43 10° SE 17:15:48 37° ENE 17:18:52 10° N
Cosmos 2016 Rocket 4.4 17:10:25 10° SSW 17:16:29 72° W 17:22:37 10° N
Cosmos 2292 Rocket 4.1 17:12:58 10° NNW 17:16:32 47° W 17:19:30 10° SSW
Cosmos 1842 4.0 17:14:58 10° NNE 17:18:10 29° ENE 17:21:21 10° SE
Cosmos 1536 4.1 17:15:44 10° SE 17:18:24 18° E 17:21:05 10° NE
Cosmos 1818 3.8 17:13:35 10° SW 17:19:02 81° NW 17:24:34 10° NE
Cosmos 1707 3.6 17:19:10 10° NNE 17:22:13 26° ENE 17:25:13 10° SE
Okean O Rocket 3.2 17:20:43 10° ESE 17:23:42 18° ENE 17:26:41 10° NNE
Tsikada Rocket 4.2 17:18:14 10° N 17:24:32 81° W 17:30:53 10° S
Meteor 2-4 Rocket 4.2 17:18:42 10° NNW 17:24:37 71° W 17:30:25 10° S
Cosmos 2278 Rocket 2.6 17:19:16 10° NNW 17:24:45 46° ENE 17:30:10 10° SE
CZ-4B DEB 4.3 17:21:25 10° SSE 17:26:49 58° ENE 17:32:13 10° N
NOSS 2-1 (C) 3.5 17:23:26 10° NW 17:27:12 74° NE 17:32:23 10° SE
DMSP B5D1-3 4.4 17:23:27 10° NNE 17:28:33 75° ESE 17:33:36 10° S
CZ-4B R/B 3.8 17:26:28 10° SE 17:31:27 38° ENE 17:36:22 10° N
CZ-4 R/B 1.5 17:30:30 10° SSE 17:34:10 49° ENE 17:37:56 10° N
Cosmos 44 Rocket 4.4 17:30:02 10° NW 17:34:31 43° WSW 17:38:56 10° S
TSX-5 3.7 17:32:22 10° NW 17:35:28 62° WSW 17:38:43 10° SSE
Cosmos 1766 Rocket 3.5 17:32:07 10° S 17:36:24 65° E 17:40:45 10° NNE
ADEOS 3.6 17:31:53 10° SSE 17:37:06 85° ENE 17:42:22 10° NNW
Resurs 01 Rocket 2.2 17:33:41 10° SE 17:37:47 39° ENE 17:41:55 10° N
GEOS 3 Rocket 3.7 17:32:46 10° SE 17:37:56 65° NE 17:43:04 10° NW
USA 306 2.8 17:34:58 10° WSW 17:37:57 57° NNW 17:41:30 10° NE
Cosmos 2360 Rocket 4.3 17:34:29 10° WSW 17:39:21 29° NW 17:44:15 10° N
PAYLOAD B 4.4 17:34:13 10° SSE 17:39:41 58° ENE 17:45:11 10° N
YAOGAN 1 3.9 17:36:35 10° S 17:40:38 41° W 17:44:44 10° NNW
CZ-4B R/B 3.4 17:36:04 10° SSE 17:40:48 88° WSW 17:45:39 10° NNW
Cosmos 1814 Rocket 4.0 17:35:34 10° SSW 17:40:51 76° ESE 17:46:07 10° NNE
Helios 1A 2.9 17:37:18 10° NNE 17:41:21 61° ESE 17:45:21 10° S
USA 267 4.4 17:35:47 10° ENE 17:41:36 36° N 17:47:26 10° WNW
Kosmos-1783 3.8 17:40:51 10° WSW 17:43:10 36° NW 17:44:50 10° NNE
USA 290 2.3 17:41:22 10° NNW 17:44:38 63° ENE 17:47:32 13° SSE
SPOT 5 4.4 17:43:06 14° E 17:44:56 17° ENE 17:47:46 10° NNE
Okean-O 4.2 17:45:38 15° E 17:47:22 18° ENE 17:50:22 10° NNE
USA 186 2.1 17:45:12 12° SE 17:47:55 44° ENE 17:51:01 10° N
Cosmos 1743 3.9 17:44:31 10° SSW 17:47:55 43° WNW 17:51:21 10° N
SPOT 1/Viking Rocket 3.7 17:43:14 10° SSE 17:48:25 81° WSW 17:53:37 10° NNW
KORONAS-FOTON 3.6 17:45:27 10° N 17:49:09 74° E 17:52:49 10° SSE
Cosmos 1408 Rocket 4.4 17:46:57 10° SSE 17:50:40 28° E 17:54:27 10° NNE
Cosmos 2237 Rocket 2.5 17:46:34 10° S 17:51:52 44° ESE 17:57:10 10° NE
SKYMED 3 4.4 17:48:05 10° NNE 17:52:14 86° WNW 17:56:20 10° SSW
CZ-4B R/B 2.7 17:50:28 10° SSE 17:54:19 81° ENE 17:58:22 10° NNW
SL-08 R/B 3.6 17:50:17 10° NNE 17:55:14 77° WNW 18:00:08 10° SSW
CSL-04 Rocket 3.8 17:50:15 10° SE 17:55:26 52° ENE 18:00:34 10° N
ISS -3.6 17:52:23 10° SW 17:55:39 54° SSE 17:57:45 20° ENE
Cosmos 2219 Rocket 3.8 17:51:26 10° WSW 17:56:41 37° NW 18:01:56 10° NNE
Meteor 1-14 Rocket 4.1 17:54:27 10° S 17:59:59 83° E 18:05:34 10° NNE
Aureole 1 4.4 17:57:33 10° NNW 18:00:38 61° ENE 18:02:47 21° SE
Meteor 1-11 Rocket 3.9 17:57:47 10° SSE 18:03:08 47° E 18:08:26 10° NNE
NOSS 2-1 (E) 4.2 18:00:34 10° NW 18:04:28 58° SW 18:09:33 11° SSE
Cosmos 1328 Rocket 4.1 18:00:32 10° NNW 18:04:45 58° W 18:08:58 10° S
Cosmos 1356 Rocket 3.3 18:03:28 10° N 18:07:41 89° E 18:11:51 10° S
Cosmos 1674 3.9 18:04:53 10° NNW 18:07:58 37° W 18:11:03 10° SSW
Lacrosse 4 Rocket 3.7 18:05:42 10° NW 18:09:11 24° WSW 18:12:37 10° SSW
SJ-6B 4.0 18:07:01 10° S 18:10:27 40° W 18:13:52 10° NNW
Cosmos 158 Rocket 4.0 18:06:22 10° S 18:10:59 45° ESE 18:15:38 10° NNE
BREEZE-M DEB (TANK) 4.0 18:09:39 10° WNW 18:12:29 56° N 18:16:40 18° E
CARTOSAT-1 3.4 18:09:13 11° SSE 18:13:20 89° ENE 18:17:37 10° NNW
Meteor 1-4 Rocket 3.5 18:13:06 10° NNW 18:15:33 32° W 18:17:58 10° SSW
ATLAS CENTAUR R/B 1.0 18:12:36 10° SSW 18:16:03 52° ESE 18:19:40 10° NE
Cosmos 1805 Rocket 4.1 18:15:48 30° ESE 18:16:43 34° E 18:20:38 10° NNE
In-Cosmos 22 4.1 18:14:00 10° N 18:19:44 77° ENE 18:24:24 15° SSE
Cosmos 1980 3.6 18:15:38 10° SSW 18:21:18 79° ESE 18:27:01 10° NNE
Cosmos 2369 Rocket 3.7 18:17:07 10° N 18:21:27 21° NE 18:23:25 18° ENE
Cosmos 1733 2.8 18:20:58 10° S 18:24:24 87° W 18:27:51 10° N
NOSS 0 Rocket 4.1 18:21:23 10° SW 18:27:38 75° WNW 18:33:54 10° NNE
ACS3 Solar Sail 1.9 18:24:20 18° SSE 18:29:15 71° ENE 18:35:38 10° N
Cosmos 1943 Rocket 2.1 18:23:44 10° NNW 18:29:17 89° WSW 18:32:34 26° SSE
USA 276 2.2 18:27:51 10° WNW 18:30:24 54° SW 18:30:24 54° SW
CSL-04 Debris 4.3 18:26:01 11° S 18:31:17 77° WSW 18:36:47 10° NNW
Nadezhda 4 Rocket 3.9 18:25:08 10° N 18:31:26 86° E 18:37:05 13° S
SWARM A 4.2 18:29:55 29° S 18:31:37 89° N 18:35:08 10° N
Sich 1 3.1 18:30:57 38° SE 18:32:12 52° E 18:36:25 10° NNE
Cosmos 2298 Rocket 4.2 18:29:00 10° NNW 18:34:13 55° ENE 18:35:58 38° ESE
ERS-1 Rocket 3.8 18:34:08 30° E 18:34:48 31° ENE 18:39:12 10° N
Terra 3.0 18:35:11 26° ENE 18:35:17 26° ENE 18:39:09 10° N
Cosmos 1570 Rocket 3.9 18:30:14 10° SSW 18:35:32 86° ESE 18:40:49 10° NNE
Cosmos 2150 Rocket 4.1 18:30:53 10° NNW 18:35:57 55° ENE 18:37:30 40° ESE
BlueWalker 3 3.9 18:33:40 10° W 18:36:29 20° SW 18:37:58 16° SSW
USA 32 4.0 18:31:42 10° N 18:36:54 59° E 18:38:54 36° SE
Cosmos 2026 Rocket 4.1 18:32:47 10° N 18:38:54 54° ENE 18:41:19 35° SE
Cosmos 1092 Rocket 4.2 18:33:05 10° N 18:39:17 54° ENE 18:41:49 34° SE
Cosmos 1975 4.3 18:43:58 23° NE 18:43:58 23° NE 18:45:45 10° NNE
Ariane Rocket 4.3 18:44:14 24° ENE 18:44:16 24° ENE 18:48:15 10° N
Cosmos 836 Rocket 4.4 18:40:59 10° S 18:46:13 71° ESE 18:51:31 10° NNE
Cosmos 1805 3.2 18:47:21 61° NE 18:47:21 61° NE 18:50:30 10° NNE
Cosmos 1315 Rocket 2.9 18:44:17 10° NNW 18:48:15 75° W 18:49:14 49° S
Cosmos 1464 Rocket 4.4 18:42:46 10° SSW 18:49:03 66° W 18:55:25 10° N
SL-16 R/B 2.9 18:53:32 35° ENE 18:53:32 35° ENE 18:57:30 10° NE
Cosmos 1125 Rocket 4.0 18:47:34 10° NNW 18:52:40 58° WSW 18:55:24 27° S
Cosmos 1634 Rocket 4.1 18:51:55 40° SE 18:53:46 52° E 18:59:53 10° NNE
Cosmos 1536 4.4 18:50:32 10° SW 18:54:01 34° WNW 18:57:32 10° N
USA 59 Rocket 2.2 18:52:57 10° WNW 18:56:23 23° WSW 19:00:05 12° SSW
Cosmos 1656 Rocket 4.0 18:53:47 10° NNW 18:59:14 46° ENE 18:59:58 43° E
Okean O Rocket 2.1 18:57:42 32° SSW 18:59:32 56° W 19:03:54 10° NNW
IRS-1C Rocket 4.1 19:04:02 55° E 19:04:29 57° ENE 19:09:39 10° N
SL-14 R/B 3.5 19:02:10 10° N 19:05:27 64° NNW 19:05:27 64° NNW
Cosmos 773 Rocket 3.9 19:05:44 61° SSE 19:06:24 68° ESE 19:11:40 10° NNE
Cosmos 2278 Rocket 3.7 19:03:43 10° NW 19:08:37 31° WSW 19:12:40 14° SSW
CZ-4 R/B 4.1 19:06:52 10° SW 19:08:59 14° W 19:11:07 10° WNW
PSLV R/B 4.3 19:09:57 50° W 19:09:57 50° W 19:13:07 10° NNW
USA 306 4.3 19:08:10 10° WNW 19:11:06 25° N 19:11:32 25° N
Cosmos 2034 Rocket 4.3 19:05:10 10° SSW 19:11:19 65° W 19:17:28 10° N
Cosmos 1500 Rocket 4.3 19:10:44 24° SW 19:13:10 52° WNW 19:17:26 10° N
Resurs 01 Rocket 3.8 19:10:50 10° SW 19:14:20 23° W 19:17:52 10° NW
Cosmos 1627 Rocket 4.4 19:08:11 10° N 19:14:30 86° W 19:16:37 45° S
MetOp-B 4.1 19:14:53 58° S 19:15:58 83° WSW 19:21:22 10° NNW
NOSS 3-3 (C) 3.8 19:11:48 10° SW 19:17:11 80° NW 19:23:35 10° NE
Cosmos 2228 Rocket 3.6 19:14:15 10° N 19:17:54 52° NNE 19:17:54 52° NNE
SPOT 3 Rocket 4.2 19:20:19 42° NE 19:20:19 42° NE 19:24:32 10° N
Cosmos 1743 Rocket 4.0 19:19:19 54° WSW 19:19:51 59° WNW 19:24:09 10° N
CRYOSAT 2 4.4 19:16:30 10° N 19:21:25 78° W 19:21:56 69° SW
SPOT 5 3.0 19:22:14 61° WSW 19:22:32 63° WSW 19:26:59 10° NNW
Okean-O 3.1 19:23:05 53° WSW 19:23:20 54° W 19:27:40 10° NNW
USA 267 4.0 19:21:02 29° ENE 19:23:44 43° NNE 19:29:50 10° NW
NOSS 3-3 (A) 4.2 19:26:06 10° SW 19:31:29 63° NW 19:37:51 10° NE
ISS -1.2 19:29:20 10° W 19:30:43 21° WNW 19:30:43 21° WNW
Cosmos 2279 Rocket 3.9 19:35:28 72° E 19:35:28 72° E 19:41:34 10° NNE
Cosmos 2237 Rocket 3.8 19:30:58 10° WSW 19:36:02 34° NW 19:41:08 10° NNE
Cosmos 1607 3.9 19:32:30 10° SW 19:38:59 90° SE 19:45:28 10° NE
MOS 1 Rocket 4.0 19:45:39 52° WSW 19:45:51 52° W 19:51:02 10° NNW
Cosmos 2297 3.7 19:41:53 10° NNW 19:47:04 76° NNW 19:47:04 76° NNW
Spot 2 Rocket 3.9 19:50:59 59° NNW 19:50:59 59° NNW 19:55:04 10° NNW
ATLAS CENTAUR R/B 3.7 19:50:59 10° W 19:53:44 20° NW 19:54:53 17° NNW
NOSS 3-4 (A) 3.7 19:49:48 10° NW 19:56:41 87° NE 19:57:11 79° ESE
NOSS 3-4 (C) 3.7 19:49:55 10° NW 19:56:48 86° NE 19:57:17 79° ESE
Cosmos 2369 Rocket 2.6 20:00:26 10° NNW 20:05:11 62° NW 20:05:11 62° NW
Terra 3.3 20:13:52 34° WNW 20:13:52 34° WNW 20:17:07 10° NNW
ERS-1 Rocket 4.3 20:14:03 35° W 20:14:03 35° W 20:18:06 10° NNW
ACS3 Solar Sail 3.9 20:09:35 12° SW 20:13:50 22° W 20:18:41 10° NW
Ariane Rocket 4.2 20:24:21 38° NW 20:24:21 38° NW 20:27:48 10° NNW
Cosmos 2266 Rocket 4.3 20:19:58 10° N 20:25:07 62° NNW 20:25:07 62° NNW
SL-16 R/B 3.5 20:35:16 33° WNW 20:36:23 36° NW 20:41:36 10° NNE
ATLAS 2AS CENTAUR R/B 4.3 20:41:50 10° NNW 20:47:24 25° NNE 20:49:08 22° NE
USA 267 3.9 21:08:22 49° NW 21:08:22 49° NW 21:12:57 10° NW
Cosmos 2344 4.3 21:08:33 10° NW 21:16:31 58° NE 21:17:16 56° ENE
Cosmos 1980 Rocket 4.3 22:07:51 10° N 22:10:30 21° NNE 22:10:30 21° NNE
USA 215 4.3 22:08:18 10° NE 22:12:42 39° NNE 22:12:42 39° NNE
ATLAS 2AS CENTAUR R/B 3.9 22:32:46 10° NW 22:36:31 34° NNW 22:36:31 34° NNW
Cosmos 2082 Rocket 4.1 23:25:38 24° NE 23:25:38 24° NE 23:27:58 10° NE
SL-16 R/B 3.9 23:32:56 10° N 23:37:43 28° NE 23:37:43 28° NE
CZ-2C R/B 4.4 23:46:19 27° N 23:46:19 27° N 23:48:45 10° N
Resurs 1-4 Rocket 4.1 23:42:02 10° NE 23:44:44 23° ENE 23:44:44 23° ENE
SL-16 R/B 4.4 23:51:12 15° ESE 23:54:51 26° ENE 23:59:50 10° N
